Location: Ciserano
(45.5833°N, 9.6000°E)
Time: 11:57:30
(UTC+00:00)

Lacrosse 5 - Pass Details

Date: 29 November 2020
Orbit: 713 x 726 km, 57.0° (Epoch: 22 January)

Event Time Altitude Azimuth Distance (km) Brightness Sun altitude
Exits shadow 04:32:06 51° 254° (WSW) 899 1.9 -21.7°
Maximum altitude 04:33:19 73° 322° (NW) 747 1.7 -21.5°
Drops below altitude 10° 04:38:23 10° 48° (NE) 2,197 4.8 -20.6°
Sets 04:40:46 0° 50° (NE) 3,120 5.7 -20.2°
